[Iaude] MPEC V75: 2023 VC2 [a=0.78,e=0.28,i=0.6,H=26.8]
    mpec at marsden.cfa.harvard.edu 
    mpec at marsden.cfa.harvard.edu
       
    Mon Nov  6 18:27:45 EST 2023
    
    
  
M.P.E.C. 2023-V75                              Issued 2023 November 6, 23:26 UT
     The Minor Planet Electronic Circulars contain information on unusual
         minor planets, routine data on comets and natural satellites,
         and occasional editorial announcements.  They are published
    on behalf of Division F of the International Astronomical Union by the
          Minor Planet Center, Smithsonian Astrophysical Observatory,
                          Cambridge, MA 02138, U.S.A.
			  
             Prepared using the Tamkin Foundation Computer Network
                              MPC at CFA.HARVARD.EDU
            URL https://www.minorplanetcenter.net/    ISSN 1523-6714
                                    2023 VC2                                    
Observations:
     K23V02C*1C2023 11 05.19040423 48 38.370+37 14 07.70         19.70GVEV075703
     K23V02C 1C2023 11 05.19602223 48 28.660+37 11 47.50               VEV075703
     K23V02C 1C2023 11 05.20163123 48 18.830+37 09 25.60         19.52GVEV075703
     K23V02C 1C2023 11 05.20723523 48 09.270+37 07 04.60               VEV075703
     K23V02C KC2023 11 05.23926123 47 13.924+36 53 31.02         20.03GVEV075I52
     K23V02C KC2023 11 05.23988123 47 12.858+36 53 15.36         19.86GVEV075I52
     K23V02C KC2023 11 05.24111923 47 10.752+36 52 43.68         18.82GVEV075I52
     K23V02C KC2023 11 05.93282023 31 59.37 +32 18 45.2          18.9 GVEV075D03
     K23V02C KC2023 11 05.93594723 31 55.27 +32 17 33.2          19.3 GVEV075D03
     K23V02C 1C2023 11 06.18847523 27 26.651+30 48 03.85         19.50GVEV075703
     K23V02C 1C2023 11 06.18943023 27 25.434+30 47 42.65         19.54GVEV075703
     K23V02C 1C2023 11 06.19038623 27 24.174+30 47 21.12         18.87GVEV075703
     K23V02C 1B2023 11 06.77453 23 18 08.51 +27 36 37.9          20.0 VZEV075M49
     K23V02C 1B2023 11 06.78698 23 17 55.04 +27 32 40.7          20.2 VZEV075M49
     K23V02C 1B2023 11 06.80162 23 17 39.26 +27 28 00.8          19.9 VZEV075M49
     K23V02C 1B2023 11 06.83741 23 17 01.08 +27 16 33.7          20.1 VZEV075M49
     K23V02C 1B2023 11 06.85000 23 16 47.84 +27 12 30.6          20.0 VZEV075M49
     K23V02C 1B2023 11 06.86304 23 16 34.17 +27 08 17.7          20.2 VZEV075M49
Observer details:
703 Catalina Sky Survey.  Observer G. J. Leonard.  Measurers E. C. Beshore, D.
    Fay, J. B. Fazekas, D. C. Fuls, A. R. Gibbs, A. D. Grauer, H. Groeller, J.
    K. Hogan, R. A. Kowalski, S. M. Larson, G. J. Leonard, D. Rankin, R. L.
    Seaman, F. C. Shelly, K. W. Wierzchos.  0.68-m Schmidt + 10K CCD.
D03 Rantiga Osservatorio, Tincana.  Observers R. Reszelewski, M. Zolnowski, M.
    Gedek, K. Zukowski, P. Baginska, T. Santana-Ros.  Measurer R. Reszelewski.
    0.36-m f/2.2 reflector + CMO.
I52 Steward Observatory, Mt. Lemmon Station.  Observer R. A. Kowalski.
    Measurers E. C. Beshore, D. Fay, J. B. Fazekas, D. C. Fuls, A. R. Gibbs,
    A. D. Grauer, H. Groeller, J. K. Hogan, R. A. Kowalski, S. M. Larson, G.
    J. Leonard, D. Rankin, R. L. Seaman, F. C. Shelly, K. W. Wierzchos.  1.0-m
    prime focus + CCD.
M49 IAS Remote Observatory, Hakos.  Observers D. Husar, M. Junius.  Measurer
    M. Junius.  0.25-m f/4.5 reflector + CMO.
Orbital elements:
2023 VC2                                                 Earth MOID = 0.0090 AU
Epoch 2023 Sept. 13.0 TT = JDT 2460200.5                Veres                   
M  99.27283              (2000.0)            P               Q                  
n   1.42631565     Peri.  262.18565     -0.71145047     +0.70271159             
a   0.7816139      Node   322.45900     -0.64088029     -0.65224170             
e   0.2849237      Incl.    0.55362     -0.28828925     -0.28421328             
P   0.69           H   26.80          G   0.15           U   8                  
Residuals in seconds of arc
231105 703  0.5-  0.5-    231105 I52  0.0   0.0     231106 M49  0.5+  0.3+
231105 703  1.0+  0.7+    231105 D03  0.4+  0.1+    231106 M49  0.2+  0.2+
231105 703  0.6+  0.1+    231105 D03  0.2-  0.1+    231106 M49  0.0   0.0
231105 703  2.9+  0.6+    231106 703  0.2+  0.4+    231106 M49  0.1-  0.5+
231105 I52  0.1+  0.0     231106 703  0.0   0.2-    231106 M49  0.0   0.4+
231105 I52  0.1-  0.1+    231106 703  0.7-  1.1-    231106 M49  0.8-  0.2-
Ephemeris:
2023 VC2                 a,e,i = 0.78, 0.28, 1                   q = 0.5589
Date    TT    R. A. (2000) Decl.     Delta      r    Elong.  Phase     V
2023 10 07    09 26 04.1 +21 12 43   0.07470 0.9601    56.2   120.1    25.9
...
2023 10 22    08 49 58.8 +32 59 14   0.03499 0.9914    82.4    95.6    22.9
...
2023 10 30    06 32 52.9 +56 49 47   0.01685 1.0005   115.1    64.0    20.2
...
2023 11 05    23 53 41.2 +38 33 49   0.01629 1.0037   137.2    42.2    19.5
2023 11 06    23 31 00.3 +31 56 37   0.01792 1.0040   133.8    45.4    19.8
2023 11 07    23 14 51.9 +26 20 35   0.01985 1.0041   130.0    49.1    20.1
...
2023 11 13    22 32 48.5 +07 57 38   0.03438 1.0032   112.0    66.2    21.8
...
2023 11 21    22 17 41.1 -00 29 59   0.05585 0.9973    97.9    78.9    23.3
...
2023 12 06    22 09 23.3 -06 02 27   0.09419 0.9718    78.9    95.6    25.0
M. P. C. Staff               (C) Copyright 2023 MPC           M.P.E.C. 2023-V75
    
    
More information about the Iaude
mailing list